QPF
0.00 0.00 0.00 0.01 0.01 0.02 0.01 0.00 0.00 0.00 0.00 0.00 0.00 0.00 0.01 0.01 0.02 0.04 0.04 0.03 0.03 0.03 0.03 0.02 0.01 0.02 0.04 0.05 0.05 0.03 0.02 0.03 0.02 0.02 0.01 0.01 0.01 0.02 0.01 0.02 0.02 0.02 0.02 0.02
0.00 0.00 0.00 0.01 0.01 0.01 0.01 0.00 0.00 0.00 0.00 0.00 0.00 0.00 0.00 0.01 0.01 0.03 0.04 0.05 0.05 0.04 0.04 0.04 0.03 0.04 0.05 0.05 0.04 0.03 0.03 0.03 0.02 0.01 0.01 0.01 0.01 0.01 0.01 0.01 0.02 0.01 0.01 0.02
0.00 0.00 0.00 0.01 0.01 0.01 0.01 0.01 0.00 0.00 0.00 0.00 0.00 0.01 0.01 0.01 0.02 0.02 0.04 0.05 0.05 0.05 0.05 0.06 0.06 0.06 0.05 0.04 0.02 0.02 0.02 0.02 0.01 0.01 0.01 0.01 0.01 0.01 0.01 0.01 0.01 0.01 0.01 0.02
0.00 0.00 0.00 0.00 0.01 0.01 0.01 0.01 0.00 0.00 0.01 0.01 0.01 0.01 0.01 0.01 0.01 0.01 0.04 0.04 0.05 0.04 0.04 0.04 0.04 0.05 0.04 0.03 0.02 0.01 0.01 0.00 0.01 0.01 0.00 0.00 0.01 0.01 0.01 0.01 0.01 0.01 0.01 0.02
0.00 0.00 0.00 0.00 0.00 0.01 0.01 0.00 0.00 0.01 0.02 0.01 0.01 0.01 0.01 0.01 0.01 0.02 0.03 0.03 0.03 0.03 0.03 0.02 0.03 0.04 0.04 0.03 0.02 0.01 0.01 0.00 0.00 0.00 0.00 0.00 0.00 0.00 0.01 0.01 0.01 0.01 0.02 0.02
0.00 0.00 0.00 0.00 0.00 0.00 0.01 0.00 0.01 0.01 0.03 0.03 0.02 0.01 0.00 0.00 0.01 0.05 0.07 0.05 0.04 0.03 0.02 0.01 0.02 0.02 0.03 0.02 0.01 0.01 0.00 0.00 0.00 0.00 0.00 0.00 0.01 0.01 0.01 0.02 0.02 0.01 0.01 0.02
0.00 0.00 0.00 0.00 0.00 0.00 0.00 0.01 0.01 0.01 0.01 0.01 0.01 0.01 0.01 0.00 0.01 0.04 0.04 0.04 0.04 0.03 0.02 0.02 0.02 0.01 0.01 0.01 0.01 0.02 0.01 0.01 0.01 0.01 0.01 0.01 0.02 0.02 0.01 0.01 0.01 0.01 0.01 0.01
0.00 0.01 0.01 0.01 0.00 0.00 0.00 0.00 0.00 0.00 0.00 0.01 0.00 0.00 0.00 0.00 0.01 0.01 0.02 0.02 0.03 0.02 0.02 0.02 0.02 0.02 0.01 0.01 0.02 0.03 0.02 0.02 0.02 0.03 0.02 0.02 0.02 0.02 0.01 0.01 0.01 0.01 0.01 0.02
0.01 0.01 0.01 0.01 0.01 0.01 0.01 0.00 0.00 0.00 0.00 0.00 0.00 0.00 0.01 0.02 0.02 0.03 0.03 0.04 0.02 0.01 0.02 0.02 0.01 0.01 0.01 0.01 0.01 0.01 0.01 0.02 0.05 0.07 0.04 0.03 0.02 0.02 0.02 0.02 0.02 0.02 0.02 0.03
0.01 0.01 0.01 0.01 0.01 0.02 0.01 0.01 0.01 0.01 0.01 0.00 0.00 0.00 0.02 0.03 0.03 0.04 0.04 0.04 0.02 0.01 0.01 0.02 0.01 0.01 0.01 0.01 0.01 0.01 0.01 0.02 0.03 0.06 0.07 0.05 0.03 0.03 0.02 0.02 0.02 0.02 0.02 0.03
0.00 0.01 0.01 0.01 0.01 0.02 0.02 0.01 0.01 0.01 0.01 0.01 0.01 0.01 0.01 0.02 0.02 0.03 0.02 0.02 0.02 0.01 0.01 0.01 0.01 0.01 0.01 0.01 0.01 0.01 0.01 0.02 0.02 0.04 0.06 0.04 0.04 0.03 0.03 0.03 0.03 0.03 0.02 0.02
0.00 0.01 0.01 0.01 0.01 0.01 0.02 0.02 0.01 0.01 0.01 0.00 0.00 0.01 0.01 0.01 0.02 0.02 0.02 0.03 0.02 0.02 0.02 0.02 0.02 0.02 0.02 0.01 0.01 0.01 0.02 0.02 0.02 0.02 0.03 0.03 0.03 0.03 0.03 0.04 0.04 0.03 0.02 0.02
0.00 0.00 0.01 0.01 0.01 0.01 0.01 0.01 0.01 0.01 0.01 0.01 0.00 0.00 0.01 0.02 0.02 0.04 0.04 0.03 0.03 0.03 0.03 0.03 0.02 0.02 0.02 0.01 0.01 0.01 0.01 0.01 0.01 0.01 0.02 0.03 0.04 0.04 0.05 0.06 0.06 0.04 0.03 0.03
0.00 0.00 0.01 0.01 0.01 0.00 0.01 0.00 0.01 0.01 0.01 0.01 0.01 0.01 0.01 0.02 0.03 0.04 0.04 0.04 0.04 0.04 0.04 0.03 0.02 0.02 0.02 0.02 0.02 0.02 0.02 0.01 0.01 0.01 0.01 0.03 0.05 0.06 0.06 0.06 0.05 0.04 0.03 0.03
0.00 0.00 0.00 0.00 0.01 0.01 0.01 0.01 0.01 0.01 0.01 0.01 0.01 0.01 0.02 0.04 0.06 0.06 0.05 0.05 0.04 0.04 0.03 0.02 0.01 0.02 0.02 0.02 0.02 0.02 0.02 0.02 0.02 0.02 0.02 0.04 0.05 0.05 0.04 0.02 0.02 0.02 0.03 0.03
0.00 0.00 0.00 0.00 0.01 0.01 0.00 0.01 0.01 0.01 0.01 0.00 0.00 0.01 0.01 0.05 0.09 0.08 0.06 0.05 0.05 0.05 0.04 0.02 0.02 0.02 0.01 0.01 0.02 0.03 0.04 0.05 0.04 0.02 0.03 0.03 0.03 0.03 0.02 0.02 0.01 0.02 0.03 0.02
0.00 0.00 0.01 0.01 0.01 0.01 0.01 0.01 0.01 0.01 0.00 0.00 0.01 0.01 0.01 0.02 0.03 0.03 0.04 0.04 0.03 0.03 0.02 0.02 0.02 0.02 0.02 0.02 0.06 0.13 0.14 0.14 0.09 0.04 0.03 0.02 0.03 0.03 0.03 0.03 0.03 0.03 0.03 0.03
0.00 0.00 0.01 0.01 0.00 0.00 0.01 0.01 0.01 0.01 0.00 0.00 0.01 0.04 0.06 0.05 0.04 0.03 0.03 0.02 0.03 0.02 0.02 0.02 0.02 0.01 0.03 0.05 0.10 0.19 0.18 0.17 0.12 0.07 0.05 0.04 0.04 0.04 0.05 0.07 0.08 0.07 0.05 0.05
0.00 0.00 0.00 0.00 0.01 0.01 0.01 0.01 0.01 0.00 0.01 0.01 0.02 0.06 0.09 0.08 0.06 0.05 0.03 0.03 0.03 0.03 0.03 0.02 0.03 0.02 0.03 0.03 0.06 0.11 0.11 0.11 0.10 0.11 0.08 0.06 0.07 0.07 0.07 0.07 0.06 0.07 0.09 0.08
0.01 0.00 0.00 0.00 0.01 0.01 0.01 0.01 0.02 0.02 0.01 0.03 0.03 0.05 0.07 0.06 0.06 0.06 0.05 0.05 0.04 0.03 0.03 0.04 0.05 0.04 0.04 0.03 0.04 0.04 0.04 0.06 0.08 0.11 0.13 0.13 0.12 0.08 0.06 0.06 0.06 0.07 0.09 0.09
0.00 0.00 0.00 0.00 0.02 0.01 0.01 0.01 0.03 0.02 0.03 0.04 0.06 0.06 0.05 0.05 0.05 0.04 0.04 0.04 0.03 0.04 0.05 0.06 0.06 0.05 0.03 0.03 0.03 0.04 0.05 0.06 0.07 0.11 0.18 0.23 0.17 0.12 0.07 0.07 0.06 0.05 0.06 0.06
0.00 0.00 0.00 0.01 0.03 0.02 0.01 0.01 0.02 0.02 0.04 0.06 0.08 0.07 0.06 0.05 0.04 0.04 0.04 0.03 0.03 0.04 0.05 0.04 0.04 0.04 0.03 0.03 0.04 0.04 0.05 0.07 0.08 0.10 0.15 0.19 0.18 0.16 0.12 0.08 0.08 0.08 0.07 0.08
0.00 0.00 0.00 0.02 0.03 0.05 0.04 0.02 0.01 0.02 0.03 0.04 0.04 0.04 0.05 0.04 0.03 0.03 0.03 0.03 0.03 0.02 0.03 0.03 0.03 0.03 0.03 0.04 0.04 0.03 0.04 0.06 0.07 0.08 0.10 0.12 0.15 0.18 0.16 0.13 0.10 0.09 0.10 0.10
0.01 0.01 0.01 0.01 0.03 0.06 0.05 0.02 0.02 0.03 0.03 0.02 0.02 0.02 0.02 0.02 0.02 0.03 0.03 0.03 0.02 0.02 0.02 0.02 0.03 0.04 0.05 0.06 0.06 0.05 0.05 0.07 0.07 0.08 0.09 0.11 0.12 0.14 0.16 0.15 0.12 0.09 0.06 0.05
0.01 0.01 0.01 0.01 0.02 0.03 0.02 0.02 0.02 0.02 0.02 0.02 0.02 0.02 0.01 0.01 0.02 0.02 0.04 0.04 0.03 0.03 0.03 0.03 0.03 0.04 0.04 0.04 0.05 0.04 0.03 0.05 0.08 0.08 0.08 0.09 0.09 0.10 0.13 0.14 0.12 0.10 0.07 0.04
0.00 0.01 0.01 0.01 0.02 0.02 0.02 0.02 0.02 0.02 0.02 0.02 0.02 0.01 0.01 0.02 0.04 0.03 0.04 0.05 0.05 0.04 0.04 0.05 0.05 0.05 0.05 0.05 0.05 0.04 0.03 0.03 0.05 0.06 0.06 0.05 0.05 0.05 0.08 0.11 0.12 0.08 0.06 0.05
MSLP
1009.55 1010.14 1010.53 1010.75 1010.85 1010.91 1011.01 1011.19 1011.47 1011.82 1012.18 1012.48 1012.68 1012.73 1012.63 1012.40 1012.11 1011.81 1011.57 1011.42 1011.36 1011.38 1011.46 1011.55 1011.63 1011.69 1011.73 1011.79 1011.89 1012.07 1012.36 1012.74 1013.19 1013.65 1014.09 1014.44 1014.69 1014.82 1014.83 1014.78 1014.69 1014.62 1014.58 1014.61
1009.76 1010.15 1010.35 1010.42 1010.43 1010.50 1010.68 1011.00 1011.47 1011.99 1012.50 1012.90 1013.11 1013.11 1012.90 1012.53 1012.09 1011.67 1011.35 1011.16 1011.12 1011.20 1011.35 1011.51 1011.65 1011.73 1011.76 1011.79 1011.85 1011.99 1012.24 1012.59 1013.03 1013.50 1013.95 1014.32 1014.56 1014.67 1014.66 1014.57 1014.46 1014.36 1014.33 1014.39
1009.71 1009.90 1009.92 1009.87 1009.85 1009.96 1010.27 1010.79 1011.46 1012.19 1012.85 1013.33 1013.54 1013.46 1013.12 1012.58 1011.97 1011.40 1010.97 1010.74 1010.71 1010.85 1011.08 1011.34 1011.55 1011.69 1011.75 1011.78 1011.81 1011.92 1012.13 1012.46 1012.88 1013.35 1013.80 1014.17 1014.41 1014.51 1014.49 1014.38 1014.24 1014.14 1014.12 1014.20
1009.45 1009.45 1009.33 1009.21 1009.20 1009.41 1009.89 1010.63 1011.54 1012.47 1013.28 1013.82 1014.01 1013.83 1013.31 1012.57 1011.75 1011.00 1010.45 1010.15 1010.11 1010.30 1010.62 1010.98 1011.29 1011.51 1011.63 1011.68 1011.72 1011.81 1012.00 1012.30 1012.71 1013.17 1013.61 1013.98 1014.22 1014.32 1014.28 1014.16 1014.02 1013.91 1013.90 1014.01
1009.08 1008.93 1008.71 1008.55 1008.60 1008.95 1009.64 1010.61 1011.74 1012.86 1013.79 1014.37 1014.51 1014.19 1013.48 1012.50 1011.45 1010.50 1009.79 1009.40 1009.34 1009.56 1009.96 1010.42 1010.85 1011.16 1011.36 1011.47 1011.53 1011.62 1011.79 1012.08 1012.47 1012.91 1013.35 1013.72 1013.97 1014.06 1014.03 1013.91 1013.76 1013.66 1013.66 1013.78
1008.69 1008.42 1008.14 1008.01 1008.15 1008.66 1009.54 1010.73 1012.07 1013.34 1014.35 1014.93 1014.99 1014.51 1013.59 1012.37 1011.09 1009.92 1009.05 1008.55 1008.45 1008.68 1009.14 1009.69 1010.22 1010.64 1010.93 1011.09 1011.19 1011.30 1011.47 1011.75 1012.12 1012.56 1012.99 1013.36 1013.62 1013.73 1013.70 1013.59 1013.46 1013.37 1013.37 1013.51
1008.36 1008.01 1007.72 1007.63 1007.87 1008.54 1009.60 1010.96 1012.45 1013.82 1014.87 1015.41 1015.36 1014.72 1013.60 1012.16 1010.65 1009.30 1008.27 1007.66 1007.50 1007.73 1008.23 1008.85 1009.46 1009.97 1010.34 1010.57 1010.71 1010.84 1011.02 1011.28 1011.65 1012.07 1012.51 1012.89 1013.16 1013.30 1013.30 1013.22 1013.11 1013.04 1013.06 1013.21
1008.12 1007.74 1007.45 1007.42 1007.77 1008.55 1009.74 1011.22 1012.78 1014.18 1015.22 1015.70 1015.53 1014.75 1013.46 1011.85 1010.17 1008.67 1007.51 1006.82 1006.60 1006.81 1007.32 1007.98 1008.65 1009.22 1009.65 1009.92 1010.10 1010.25 1010.43 1010.69 1011.05 1011.47 1011.91 1012.30 1012.61 1012.78 1012.84 1012.80 1012.73 1012.69 1012.74 1012.90
1007.97 1007.58 1007.33 1007.36 1007.78 1008.64 1009.88 1011.39 1012.95 1014.32 1015.29 1015.69 1015.43 1014.54 1013.14 1011.43 1009.67 1008.08 1006.86 1006.11 1005.85 1006.03 1006.53 1007.19 1007.87 1008.47 1008.92 1009.22 1009.42 1009.57 1009.75 1010.00 1010.35 1010.76 1011.21 1011.63 1011.97 1012.20 1012.32 1012.35 1012.34 1012.36 1012.44 1012.63
1007.88 1007.52 1007.32 1007.39 1007.85 1008.72 1009.95 1011.40 1012.88 1014.16 1015.03 1015.33 1015.00 1014.06 1012.65 1010.93 1009.18 1007.60 1006.38 1005.62 1005.34 1005.49 1005.95 1006.58 1007.24 1007.81 1008.25 1008.55 1008.73 1008.88 1009.04 1009.28 1009.60 1010.01 1010.46 1010.90 1011.28 1011.57 1011.77 1011.88 1011.96 1012.05 1012.19 1012.43
1007.81 1007.51 1007.36 1007.48 1007.93 1008.76 1009.89 1011.22 1012.55 1013.68 1014.42 1014.64 1014.28 1013.36 1012.01 1010.40 1008.76 1007.29 1006.15 1005.43 1005.16 1005.28 1005.69 1006.25 1006.84 1007.35 1007.73 1007.99 1008.14 1008.25 1008.38 1008.58 1008.88 1009.26 1009.70 1010.15 1010.57 1010.92 1011.19 1011.40 1011.58 1011.76 1011.98 1012.28
1007.74 1007.53 1007.44 1007.58 1008.00 1008.73 1009.72 1010.86 1011.99 1012.94 1013.55 1013.70 1013.35 1012.53 1011.33 1009.91 1008.48 1007.19 1006.19 1005.56 1005.32 1005.42 1005.76 1006.23 1006.71 1007.13 1007.42 1007.60 1007.69 1007.75 1007.83 1007.99 1008.24 1008.58 1008.99 1009.44 1009.87 1010.26 1010.60 1010.90 1011.17 1011.46 1011.78 1012.16
1007.68 1007.57 1007.56 1007.71 1008.08 1008.68 1009.48 1010.39 1011.30 1012.05 1012.53 1012.63 1012.34 1011.66 1010.68 1009.53 1008.36 1007.32 1006.51 1006.01 1005.81 1005.89 1006.15 1006.51 1006.87 1007.16 1007.35 1007.44 1007.45 1007.44 1007.46 1007.55 1007.74 1008.02 1008.38 1008.78 1009.20 1009.60 1009.99 1010.35 1010.72 1011.10 1011.52 1012.00
1007.64 1007.66 1007.72 1007.88 1008.18 1008.64 1009.24 1009.91 1010.58 1011.14 1011.49 1011.57 1011.36 1010.86 1010.14 1009.29 1008.43 1007.66 1007.07 1006.71 1006.57 1006.62 1006.80 1007.04 1007.26 1007.42 1007.49 1007.48 1007.42 1007.34 1007.29 1007.31 1007.41 1007.61 1007.88 1008.21 1008.57 1008.95 1009.34 1009.74 1010.16 1010.63 1011.14 1011.71
1007.65 1007.80 1007.94 1008.10 1008.33 1008.65 1009.05 1009.49 1009.93 1010.31 1010.55 1010.62 1010.50 1010.19 1009.74 1009.20 1008.65 1008.16 1007.79 1007.56 1007.47 1007.50 1007.60 1007.71 1007.81 1007.84 1007.80 1007.71 1007.57 1007.42 1007.31 1007.25 1007.27 1007.36 1007.52 1007.74 1008.01 1008.31 1008.66 1009.05 1009.50 1010.01 1010.59 1011.24
1007.74 1008.00 1008.20 1008.37 1008.54 1008.72 1008.93 1009.16 1009.40 1009.61 1009.77 1009.84 1009.81 1009.68 1009.48 1009.23 1008.96 1008.73 1008.55 1008.44 1008.39 1008.39 1008.41 1008.43 1008.41 1008.33 1008.21 1008.04 1007.85 1007.66 1007.50 1007.37 1007.29 1007.27 1007.30 1007.39 1007.52 1007.71 1007.97 1008.30 1008.72 1009.24 1009.86 1010.56
1007.86 1008.22 1008.48 1008.65 1008.75 1008.82 1008.87 1008.93 1008.99 1009.06 1009.14 1009.22 1009.27 1009.30 1009.31 1009.30 1009.28 1009.25 1009.23 1009.21 1009.20 1009.17 1009.13 1009.06 1008.95 1008.80 1008.63 1008.42 1008.21 1008.00 1007.80 1007.61 1007.46 1007.32 1007.22 1007.15 1007.13 1007.17 1007.30 1007.54 1007.89 1008.37 1008.98 1009.69
1007.98 1008.40 1008.69 1008.86 1008.91 1008.88 1008.81 1008.72 1008.64 1008.62 1008.64 1008.71 1008.83 1008.98 1009.16 1009.33 1009.49 1009.62 1009.72 1009.77 1009.78 1009.74 1009.65 1009.52 1009.36 1009.17 1008.97 1008.77 1008.56 1008.36 1008.15 1007.94 1007.72 1007.49 1007.27 1007.05 1006.87 1006.75 1006.73 1006.82 1007.07 1007.47 1008.02 1008.70
1008.02 1008.47 1008.77 1008.92 1008.93 1008.83 1008.66 1008.47 1008.30 1008.19 1008.17 1008.25 1008.42 1008.66 1008.94 1009.25 1009.54 1009.78 1009.95 1010.05 1010.07 1010.02 1009.91 1009.75 1009.57 1009.38 1009.20 1009.02 1008.86 1008.69 1008.50 1008.29 1008.03 1007.74 1007.41 1007.06 1006.74 1006.46 1006.29 1006.24 1006.35 1006.63 1007.09 1007.70
1007.91 1008.36 1008.65 1008.78 1008.75 1008.60 1008.37 1008.11 1007.89 1007.74 1007.69 1007.77 1007.97 1008.27 1008.63 1009.02 1009.38 1009.69 1009.92 1010.05 1010.08 1010.02 1009.91 1009.75 1009.58 1009.42 1009.28 1009.16 1009.05 1008.94 1008.79 1008.60 1008.34 1008.01 1007.61 1007.18 1006.74 1006.33 1006.02 1005.83 1005.80 1005.96 1006.30 1006.81
1007.61 1008.04 1008.31 1008.41 1008.36 1008.18 1007.92 1007.64 1007.39 1007.22 1007.18 1007.26 1007.48 1007.81 1008.21 1008.64 1009.05 1009.39 1009.64 1009.79 1009.83 1009.79 1009.68 1009.55 1009.41 1009.29 1009.21 1009.16 1009.12 1009.07 1008.98 1008.83 1008.58 1008.25 1007.83 1007.34 1006.84 1006.34 1005.93 1005.63 1005.48 1005.51 1005.72 1006.11
1007.15 1007.53 1007.77 1007.85 1007.78 1007.60 1007.34 1007.07 1006.83 1006.67 1006.64 1006.74 1006.98 1007.32 1007.73 1008.17 1008.59 1008.94 1009.20 1009.36 1009.42 1009.39 1009.31 1009.21 1009.11 1009.05 1009.02 1009.03 1009.05 1009.06 1009.03 1008.93 1008.72 1008.41 1008.01 1007.52 1006.98 1006.46 1005.98 1005.61 1005.37 1005.29 1005.39 1005.65
1006.59 1006.92 1007.12 1007.18 1007.11 1006.94 1006.71 1006.47 1006.26 1006.14 1006.14 1006.26 1006.51 1006.85 1007.26 1007.69 1008.10 1008.44 1008.70 1008.86 1008.92 1008.92 1008.86 1008.79 1008.73 1008.71 1008.73 1008.78 1008.85 1008.91 1008.93 1008.87 1008.71 1008.45 1008.08 1007.63 1007.12 1006.60 1006.12 1005.71 1005.42 1005.27 1005.27 1005.41
1006.02 1006.31 1006.47 1006.52 1006.46 1006.31 1006.13 1005.94 1005.79 1005.72 1005.75 1005.89 1006.14 1006.48 1006.87 1007.27 1007.65 1007.97 1008.21 1008.36 1008.43 1008.43 1008.39 1008.34 1008.31 1008.32 1008.36 1008.44 1008.53 1008.61 1008.66 1008.63 1008.52 1008.31 1008.00 1007.61 1007.16 1006.70 1006.25 1005.86 1005.56 1005.37 1005.30 1005.35
1005.58 1005.81 1005.95 1005.98 1005.94 1005.83 1005.70 1005.57 1005.48 1005.47 1005.54 1005.70 1005.95 1006.27 1006.62 1006.98 1007.31 1007.59 1007.79 1007.92 1007.98 1007.98 1007.95 1007.91 1007.89 1007.89 1007.93 1008.00 1008.09 1008.17 1008.22 1008.21 1008.13 1007.97 1007.73 1007.42 1007.06 1006.67 1006.30 1005.96 1005.69 1005.49 1005.38 1005.36
1005.36 1005.54 1005.64 1005.67 1005.64 1005.57 1005.49 1005.43 1005.41 1005.45 1005.55 1005.73 1005.96 1006.24 1006.55 1006.84 1007.11 1007.32 1007.48 1007.56 1007.59 1007.57 1007.53 1007.48 1007.44 1007.43 1007.44 1007.49 1007.54 1007.59 1007.62 1007.62 1007.55 1007.43 1007.25 1007.02 1006.76 1006.47 1006.19 1005.93 1005.70 1005.53 1005.42 1005.36
Thickness
5810 5796 5788 5794 5799 5800 5795 5789 5787 5797 5813 5805 5800 5802 5809 5814 5812 5810 5808 5807 5807 5808 5811 5812 5811 5809 5806 5802 5800 5797 5793 5791 5789 5785 5782 5779 5777 5776 5775 5775 5774 5772 5771 5769
5793 5789 5804 5810 5807 5803 5796 5788 5789 5799 5812 5807 5798 5801 5811 5814 5813 5813 5811 5810 5809 5808 5808 5809 5808 5807 5805 5802 5799 5797 5794 5792 5790 5787 5784 5781 5778 5776 5775 5774 5773 5772 5770 5769
5789 5801 5815 5809 5802 5797 5794 5790 5792 5793 5801 5804 5798 5794 5803 5812 5815 5816 5816 5815 5813 5811 5808 5807 5806 5805 5804 5802 5800 5798 5794 5792 5790 5788 5784 5780 5777 5774 5772 5771 5770 5770 5769 5768
5793 5806 5809 5804 5800 5799 5787 5805 5803 5797 5784 5775 5788 5766 5792 5802 5805 5809 5812 5813 5813 5813 5812 5809 5806 5804 5804 5804 5802 5799 5795 5792 5790 5788 5784 5779 5774 5770 5770 5769 5769 5769 5768 5767
5790 5803 5802 5798 5804 5806 5801 5811 5803 5794 5782 5772 5778 5768 5780 5797 5796 5805 5811 5815 5816 5816 5814 5811 5809 5807 5806 5804 5802 5799 5795 5792 5790 5787 5784 5780 5776 5773 5771 5769 5767 5766 5766 5765
5796 5809 5809 5807 5815 5814 5810 5800 5789 5777 5768 5755 5770 5765 5770 5786 5799 5808 5813 5817 5818 5818 5816 5813 5811 5808 5805 5804 5801 5798 5794 5791 5789 5786 5783 5779 5775 5772 5769 5766 5764 5763 5763 5762
5783 5796 5808 5813 5802 5805 5800 5776 5752 5749 5740 5746 5768 5765 5774 5803 5813 5816 5816 5818 5820 5820 5816 5812 5809 5806 5803 5802 5800 5797 5793 5790 5788 5785 5782 5779 5775 5772 5769 5766 5764 5762 5760 5759
5763 5767 5796 5806 5801 5792 5789 5778 5750 5738 5734 5745 5761 5760 5786 5812 5818 5822 5822 5822 5820 5818 5815 5812 5810 5807 5805 5802 5799 5796 5792 5789 5786 5784 5781 5778 5775 5772 5769 5767 5764 5761 5759 5758
5759 5766 5799 5808 5811 5801 5782 5773 5776 5752 5745 5741 5749 5767 5791 5812 5813 5816 5817 5817 5815 5815 5814 5811 5809 5807 5804 5801 5799 5796 5791 5787 5785 5782 5779 5777 5774 5771 5768 5766 5763 5760 5758 5757
5776 5767 5786 5800 5805 5799 5793 5777 5758 5746 5733 5731 5747 5758 5770 5793 5801 5807 5809 5810 5811 5812 5811 5809 5807 5805 5803 5800 5797 5794 5790 5785 5782 5780 5777 5775 5772 5769 5767 5763 5761 5758 5756 5754
5778 5765 5772 5783 5782 5778 5777 5770 5756 5743 5743 5731 5730 5752 5793 5796 5801 5802 5805 5808 5808 5809 5808 5806 5804 5802 5800 5796 5793 5790 5787 5783 5780 5777 5774 5772 5769 5766 5764 5760 5757 5755 5753 5751
5772 5758 5750 5766 5785 5791 5784 5773 5758 5748 5740 5734 5731 5753 5801 5801 5803 5803 5803 5805 5806 5805 5805 5803 5801 5797 5794 5791 5789 5786 5783 5780 5777 5775 5771 5769 5766 5762 5759 5756 5753 5751 5749 5747
5770 5753 5738 5744 5759 5774 5773 5769 5762 5751 5737 5727 5730 5756 5795 5796 5797 5800 5800 5800 5800 5799 5798 5797 5795 5792 5790 5787 5784 5782 5779 5776 5774 5771 5767 5764 5761 5758 5755 5752 5749 5746 5744 5742
5776 5751 5743 5739 5747 5761 5764 5765 5761 5752 5737 5732 5741 5759 5779 5785 5788 5792 5794 5795 5794 5794 5793 5791 5789 5786 5785 5783 5780 5777 5775 5772 5769 5765 5762 5759 5756 5754 5752 5749 5745 5743 5740 5737
5770 5750 5753 5758 5765 5766 5767 5766 5763 5759 5753 5746 5755 5760 5775 5782 5785 5787 5789 5790 5788 5787 5786 5786 5784 5781 5778 5776 5774 5772 5769 5767 5764 5759 5757 5754 5752 5750 5747 5744 5741 5738 5735 5732
5756 5749 5750 5753 5760 5761 5759 5763 5763 5762 5761 5757 5759 5763 5780 5783 5783 5782 5783 5783 5782 5782 5781 5780 5778 5775 5772 5770 5767 5765 5763 5760 5758 5754 5751 5749 5746 5744 5742 5739 5736 5732 5729 5727
5741 5742 5735 5732 5746 5751 5740 5754 5757 5758 5762 5759 5754 5764 5773 5773 5774 5776 5778 5778 5778 5777 5776 5774 5772 5769 5767 5765 5763 5760 5758 5754 5750 5748 5746 5743 5740 5738 5735 5733 5730 5727 5724 5722
5737 5729 5721 5721 5731 5721 5743 5764 5764 5759 5759 5761 5762 5765 5767 5768 5770 5773 5775 5773 5772 5772 5771 5770 5767 5765 5762 5760 5757 5754 5751 5747 5744 5742 5740 5737 5734 5732 5730 5727 5724 5722 5719 5716
5736 5727 5713 5707 5710 5721 5742 5755 5755 5750 5749 5758 5757 5760 5761 5763 5763 5764 5769 5770 5768 5768 5767 5765 5763 5760 5756 5753 5750 5747 5743 5740 5737 5734 5731 5729 5727 5725 5723 5721 5718 5716 5714 5711
5724 5723 5712 5703 5706 5706 5731 5753 5759 5752 5738 5755 5755 5753 5753 5754 5743 5749 5761 5762 5761 5761 5760 5758 5755 5753 5749 5747 5743 5739 5735 5732 5729 5727 5725 5723 5721 5719 5717 5715 5712 5710 5709 5706
5707 5704 5701 5698 5701 5711 5735 5746 5750 5728 5732 5750 5750 5749 5748 5745 5745 5749 5753 5754 5754 5754 5753 5751 5748 5744 5741 5739 5736 5731 5728 5725 5723 5721 5719 5717 5714 5712 5710 5708 5705 5703 5701 5698
5697 5694 5691 5690 5693 5704 5732 5736 5731 5731 5741 5744 5744 5744 5742 5741 5743 5744 5745 5745 5746 5745 5744 5742 5739 5735 5732 5731 5727 5723 5720 5718 5715 5712 5711 5708 5706 5705 5703 5699 5697 5696 5693 5690
5693 5696 5694 5696 5700 5714 5723 5727 5732 5733 5733 5736 5737 5738 5737 5735 5734 5734 5734 5735 5736 5736 5735 5733 5730 5726 5724 5722 5720 5715 5712 5709 5705 5703 5701 5699 5698 5696 5694 5692 5689 5687 5685 5684
5691 5692 5692 5694 5703 5711 5718 5723 5727 5729 5729 5730 5731 5731 5730 5728 5726 5724 5723 5724 5724 5724 5723 5722 5720 5717 5715 5713 5710 5708 5705 5702 5698 5694 5691 5690 5688 5687 5685 5684 5682 5680 5678 5676
5685 5686 5684 5688 5698 5705 5711 5715 5718 5721 5722 5722 5723 5723 5722 5720 5717 5716 5714 5713 5712 5713 5712 5711 5709 5708 5706 5703 5701 5700 5697 5694 5689 5686 5684 5682 5680 5678 5676 5676 5676 5674 5672 5672
5679 5679 5680 5684 5694 5693 5699 5709 5712 5712 5712 5713 5713 5712 5712 5712 5709 5707 5704 5704 5703 5701 5701 5700 5699 5697 5696 5694 5692 5691 5689 5685 5681 5678 5676 5673 5671 5669 5668 5667 5667 5666 5665 5665